#timestamp,LO_Frequency,Hit,StdDev 
1563897615.4,286046998.8,N
1563897635.3,286046998.4,N
1563897655.1,286047000.5,N
1563897675.9,286047002.0,N
1563897695.7,286047002.0,N
1563897715.5,286047002.1,N
1563897735.4,286047002.8,N
1563897755.2,286047001.1,N
1563897775.0,286047000.4,N
1563897775.9,286047000.4,N
1563897795.8,286047002.6,N
1563897815.6,286047001.3,N
1563897835.5,286047002.4,N
1563897855.3,286047004.0,N
1563897875.1,286047005.5,Y
1563897895.9,286047005.7,P
1563897915.7,286047003.0,N
1563897935.6,286047007.6,P
1563897955.4,286047005.6,N
1563897975.2,286047005.8,N
1563897995.1,286047005.6,N
1563897996.0,286047005.6,N
1563898015.8,286047004.0,N
1563898035.6,286047005.2,N
1563898055.5,286047002.2,N
1563898075.3,286047000.0,N
1563898095.1,286047000.2,N
1563898115.9,286047001.4,N
1563898135.7,286047003.9,N
1563898155.6,286047004.3,N
1563898175.4,286047002.6,N
1563898195.2,286047004.4,N
1563898215.1,286047005.2,N
1563898216.0,286047005.2,N
1563898235.8,286047005.7,N
1563898255.7,286047002.9,N
1563898275.5,286047005.2,N
1563898295.3,286047004.9,N
1563898315.2,286047007.6,Y
1563898335.0,286047002.8,P
1563898335.9,286047002.8,P
1563898355.8,286047000.4,N
1563898375.6,286047001.2,N
1563898395.4,286046998.1,N
1563898415.3,286047001.0,N
1563898435.1,286046998.8,N
1563898455.8,286046998.6,N
1563898475.7,286046998.4,N
1563898495.5,286046999.4,N
1563898515.4,286046997.3,N
1563898535.2,286046997.8,N
1563898555.0,286046997.1,N
1563898555.9,286046997.1,N
1563898575.8,286046998.1,N
1563898595.6,286047000.9,N
1563898615.4,286047000.4,N
1563898635.3,286047000.6,N
1563898655.1,286047000.9,N
1563898675.9,286047002.0,N
1563898695.7,286047004.2,N
1563898715.5,286047003.1,N
1563898735.4,286047005.9,N
1563898755.2,286047003.0,N
1563898775.0,286047004.0,N
1563898776.0,286047004.0,N
1563898795.8,286047004.4,N
1563898815.6,286047003.0,N
1563898835.5,286047005.1,N
1563898855.3,286047003.4,N
1563898875.1,286047001.8,N
1563898895.9,286047004.3,N
1563898915.7,286047002.6,N
1563898935.6,286047004.4,N
1563898955.4,286047002.5,N
1563898975.2,286047001.4,N
1563898995.1,286047001.4,N
1563898996.0,286047001.4,N
1563899015.8,286047002.3,N
1563899035.6,286047002.8,N
1563899055.5,286046999.7,N
1563899075.3,286047000.5,N
1563899095.2,286046999.7,N
1563899115.9,286047000.7,N
1563899135.7,286047002.8,N
1563899155.6,286047000.4,N
1563899175.4,286047000.3,N
1563899195.2,286047002.7,N
1563899215.1,286047002.4,N
1563899216.0,286047002.4,N
1563899235.8,286047000.5,N
1563899255.7,286047002.5,N
1563899275.5,286047004.0,N
1563899295.3,286047001.9,N
1563899315.2,286047001.9,N
1563899335.0,286046999.8,N
1563899335.9,286046999.8,N
1563899355.8,286047002.0,N
1563899375.6,286047001.9,N
1563899395.4,286047005.8,Y
1563899415.3,286046999.7,P
1563899435.1,286047001.5,N
1563899455.8,286047002.5,N
1563899475.7,286047002.8,N
1563899495.5,286046999.7,N
1563899515.4,286046999.8,N
1563899535.2,286047002.3,N
1563899555.0,286047001.8,N
1563899555.9,286047001.8,N
1563899575.8,286047002.7,N
1563899595.6,286047000.6,N
1563899615.4,286046998.3,N
1563899635.3,286046999.1,N
1563899655.1,286046997.1,N
1563899675.9,286046996.9,N
1563899695.7,286046997.4,N
1563899715.5,286046994.9,N
1563899735.4,286046995.3,N
1563899755.2,286046996.3,N
1563899775.0,286046995.7,N
1563899775.9,286046995.7,N
1563899795.8,286046995.3,N
1563899815.6,286046997.8,N
1563899835.5,286046996.2,N
1563899855.3,286046995.1,N
1563899875.1,286046995.7,N
1563899895.9,286046995.6,N
1563899915.7,286046995.1,N
1563899935.5,286046996.2,N
1563899955.4,286046997.3,N
1563899975.2,286046996.9,N
1563899995.1,286046997.0,N
1563899996.0,286046997.0,N
1563900015.8,286046998.9,N
1563900035.6,286046998.9,N
1563900055.5,286046998.7,N
1563900075.3,286046998.6,N
1563900095.1,286047000.7,N
1563900115.9,286047000.8,N
1563900135.7,286047001.1,N
1563900155.6,286047000.6,N
1563900175.4,286047000.8,N
1563900195.2,286046998.1,N
1563900215.1,286046998.4,N
1563900216.0,286046998.4,N
1563900235.8,286046996.7,N
1563900255.7,286046997.4,N
1563900275.5,286046999.2,N
1563900295.3,286046999.1,N
1563900315.2,286046997.5,N
1563900335.0,286046997.2,N
1563900335.9,286046997.2,N
1563900355.7,286046997.8,N
1563900375.6,286046994.9,Y
1563900395.4,286046999.5,P
1563900415.3,286046998.5,N
1563900435.1,286046999.4,N
1563900455.8,286046996.5,Y
1563900475.7,286047000.8,P
1563900495.5,286047000.5,N
1563900515.4,286047001.2,N
1563900535.2,286047001.2,N
1563900555.0,286047001.0,N
1563900555.9,286047001.0,N
1563900575.8,286047002.4,Y
1563900595.6,286047000.1,P
1563900615.5,286047000.0,N
1563900635.3,286046999.7,N
1563900655.1,286046999.9,N
1563900675.9,286046998.3,Y
1563900695.7,286047000.5,P
1563900715.6,286047002.5,P
1563900735.4,286047004.3,P
1563900755.2,286047003.1,N
1563900775.1,286047003.1,N
1563900776.0,286047003.1,N
1563900795.8,286047006.0,Y
1563900815.7,286047003.8,P
1563900835.5,286047006.0,P
1563900855.3,286047002.9,N
1563900875.2,286047003.3,N
1563900895.0,286047005.7,Y
1563900895.9,286047005.7,P
1563900915.8,286046998.6,N
1563900935.6,286046997.1,N
1563900955.4,286046997.9,N
1563900975.3,286046995.4,N
1563900995.1,286046995.4,N
1563901015.8,286046996.2,N
1563901035.7,286046995.8,N
1563901055.5,286046995.9,N
1563901075.4,286046995.0,N
1563901095.2,286046995.8,N
1563901115.0,286046997.3,N
1563901115.9,286046997.3,N
1563901135.8,286046995.0,N
1563901155.6,286046995.6,N
1563901175.5,286046995.6,N
1563901195.3,286046995.2,N
